[[{"header":{"parameterUnit":"m.s-1","parameterCategory":2,"la1":30.2991,"la2":30.254,"lo1":-89.0895,"lo2":-89.0444,"dy":0.0017,"dx":0.0017,"nx":28,"ny":28,"refTime":"2025-03-23T09:00:00:Z","depth":"0","parameterNumber":2,"parameterNumberName":"U-component_of_CURRENTS"},"data":[0,0,0,0,0,0,0,0,0,0,0,0,0,0,0,0,0,0,0,0,0,0,0,0,0,0,0,0,0,0,0,0,0,0,0,0,0,0,0,0,0,0,0,0,0,0,0,0,0,0,0,0,0,0,0,0,0,0,-0.3694,-0.3695,0,-0.3716,-0.3716,-0.3716,-0.3721,-0.3721,-0.372,-0.372,-0.3689,-0.3689,-0.3688,0,0,0,0,0,0,0,0,0,0,0,0,0,-0.3619,-0.3621,-0.3694,-0.3695,-0.3695,-0.3716,-0.3716,-0.3717,-0.3721,-0.3721,-0.372,-0.372,-0.369,-0.3689,-0.3688,0,0,0,0,0,0,0,0,0,0,0,0,0,-0.3647,-0.3621,-0.3694,-0.37,-0.37,-0.3716,-0.3716,-0.3717,-0.3721,-0.3721,-0.372,-0.372,-0.369,-0.3689,-0.3688,-0.3686,0,0,-0.3685,-0.3684,0,0,0,0,0,0,0,0,-0.3646,-0.365,-0.3699,-0.3699,-0.37,-0.3716,-0.3678,-0.3704,-0.3721,-0.3713,-0.372,-0.372,-0.3693,-0.3692,-0.3697,-0.3685,-0.3684,-0.3685,-0.3684,-0.3684,-0.3683,0,0,0,0,0,0,0,-0.3644,-0.3649,-0.3703,-0.3699,-0.37,-0.3688,-0.3692,-0.3683,-0.3703,-0.3714,-0.3714,-0.3717,-0.3693,-0.3698,-0.3696,-0.3683,-0.3685,-0.3684,-0.3683,-0.3683,-0.369,-0.369,0,0,0,0,0,0,-0.3644,-0.3648,-0.3702,-0.3703,-0.3672,-0.369,-0.3694,-0.3711,-0.3704,-0.3704,-0.3717,-0.3717,-0.37,-0.3698,-0.3695,-0.3659,-0.3684,-0.3683,-0.3682,-0.3689,-0.369,-0.3691,0,0,0,0,0,0,-0.3643,-0.3649,-0.3701,-0.3675,-0.3681,-0.3692,-0.371,-0.3711,-0.3718,-0.3708,-0.3706,-0.3722,-0.37,-0.3697,-0.3689,-0.3659,-0.3682,-0.3681,-0.3688,-0.3689,-0.369,-0.3608,0,0,0,0,0,0,-0.3641,-0.3649,-0.3679,-0.3676,-0.3682,-0.3703,-0.371,-0.3712,-0.372,-0.372,-0.3711,-0.3708,-0.3699,-0.3691,-0.3688,-0.3658,-0.368,-0.3687,-0.3689,-0.369,-0.361,-0.3606,-0.3603,0,0,0,0,0,-0.3638,-0.3674,-0.3681,-0.3688,-0.3718,-0.3703,-0.3705,-0.3711,-0.372,-0.3718,-0.3718,-0.3708,-0.3699,-0.369,-0.3687,-0.3656,-0.3686,-0.3688,-0.369,-0.3611,-0.3607,-0.3603,0,0,0,0,0,0,-0.3638,-0.3678,-0.3685,-0.3727,-0.3712,-0.3704,-0.3702,-0.3714,-0.3715,-0.3715,-0.371,-0.3707,-0.3685,-0.3701,-0.3692,-0.3671,-0.3694,-0.3695,-0.3636,-0.3632,-0.3628,-0.357,-0.368,0,0,0,0,0,-0.3658,-0.3693,-0.3703,-0.372,-0.3714,-0.3709,-0.3712,-0.3716,-0.371,-0.3711,-0.3701,-0.3703,-0.3692,-0.3686,-0.3679,-0.3668,-0.3646,-0.3655,-0.3652,-0.3648,-0.3605,-0.3544,-0.3529,-0.3697,-0.3697,-0.3697,0,0,-0.3637,-0.3679,-0.3684,-0.3723,-0.3704,-0.3685,-0.3708,-0.37,-0.3678,-0.3706,-0.3671,-0.3682,-0.3688,-0.3665,-0.3659,-0.3672,-0.3602,-0.3651,-0.3647,-0.3604,-0.3544,-0.3527,-0.3511,-0.3698,-0.3698,-0.3697,0,0,-0.3592,-0.3662,-0.3655,-0.3666,-0.3672,-0.3675,-0.3672,-0.3666,-0.3657,-0.3651,-0.3651,-0.3634,-0.3648,-0.3613,-0.3608,-0.3588,-0.3582,-0.362,-0.3549,-0.3492,-0.3475,-0.346,-0.3448,-0.3432,-0.3622,-0.3622,-0.3622,0,-0.3577,-0.357,-0.364,-0.3639,-0.3623,-0.3663,-0.3614,-0.3626,-0.3619,-0.3591,-0.3634,-0.3604,-0.3606,-0.3539,-0.3537,-0.3567,-0.3562,-0.3554,-0.3479,-0.3464,-0.345,-0.3441,-0.3424,-0.3619,-0.3619,-0.3619,-0.362,0,-0.351,-0.3512,-0.3497,-0.3512,-0.3523,-0.3486,-0.3509,-0.3508,-0.3524,-0.3524,-0.348,-0.3492,-0.3468,-0.3481,-0.3501,-0.341,-0.345,-0.3472,-0.347,-0.3426,-0.3423,-0.3407,-0.3613,-0.3615,-0.3616,-0.3617,0,0,-0.3432,-0.3443,-0.3439,-0.3409,-0.3449,-0.3439,-0.3417,-0.3378,-0.3364,-0.3374,-0.3321,-0.3301,-0.3321,-0.3316,-0.3338,-0.3293,-0.3209,-0.3343,-0.3342,-0.3298,-0.3116,-0.3057,-0.3036,-0.3222,-0.3218,-0.3215,-0.3164,0,-0.3324,-0.3277,-0.3325,-0.325,-0.3198,-0.3259,-0.3245,-0.3253,-0.3271,-0.3256,-0.3246,-0.3232,-0.3259,-0.3267,-0.3212,-0.3225,-0.3159,-0.3222,-0.3193,-0.3192,-0.3115,-0.301,-0.2897,-0.2833,-0.3149,-0.3146,-0.3145,0,-0.3226,-0.3204,-0.3104,-0.3097,-0.3085,-0.308,-0.3069,-0.3071,-0.3085,-0.3105,-0.3083,-0.3121,-0.3061,-0.311,-0.303,-0.3081,-0.3063,-0.3067,-0.3066,-0.301,-0.3099,-0.2925,-0.2793,-0.2791,-0.3121,-0.3123,-0.3124,0,-0.3088,-0.3056,-0.2961,-0.2959,-0.2967,-0.2941,-0.2963,-0.2999,-0.301,-0.301,-0.3042,-0.2987,-0.3,-0.2941,-0.2967,-0.2997,-0.2897,-0.2945,-0.2858,-0.2858,-0.2747,-0.2741,-0.2564,-0.2819,-0.2819,-0.2819,-0.2819,0,-0.2944,-0.2878,-0.2896,-0.2839,-0.2787,-0.2845,-0.2818,-0.2849,-0.2898,-0.2903,-0.2956,-0.2954,-0.2958,-0.2938,-0.2921,-0.284,-0.285,-0.2788,-0.2803,-0.2725,-0.2718,-0.2704,-0.275,-0.2817,-0.2818,-0.2818,-0.2818,0,-0.2778,-0.2783,-0.2696,-0.2691,-0.2706,-0.268,-0.2765,-0.2762,-0.2836,-0.2847,-0.2853,-0.2921,-0.2885,-0.2888,-0.2826,-0.2793,-0.2672,-0.2682,-0.2613,-0.2616,-0.2512,-0.256,-0.2392,-0.2323,-0.2554,-0.2552,-0.255,0,-0.2665,-0.259,-0.2592,-0.2575,-0.2564,-0.2571,-0.2589,-0.2696,-0.2717,-0.2814,-0.2802,-0.2818,-0.278,-0.2702,-0.2628,-0.254,-0.2566,-0.241,-0.2398,-0.2425,-0.2491,-0.2539,-0.2497,-0.2257,-0.2253,-0.225,-0.2247,0,-0.2434,-0.2457,-0.241,-0.2394,-0.2398,-0.2422,-0.246,-0.2488,-0.2603,-0.2637,-0.2654,-0.2637,-0.2585,-0.2453,-0.2379,-0.2315,-0.2351,-0.2335,-0.2351,-0.2193,-0.224,-0.221,-0.2434,-0.2216,-0.2219,-0.2221,-0.2223,-0.2224,-0.229,-0.2237,-0.2213,-0.2195,-0.2218,-0.2234,-0.2216,-0.2289,-0.232,-0.2342,-0.2428,-0.236,-0.2331,-0.2191,-0.214,-0.2034,-0.2099,-0.199,-0.2039,-0.2081,-0.1995,-0.2159,-0.1967,-0.1969,-0.197,-0.1971,-0.1972,0,-0.2085,-0.2056,-0.2019,-0.2005,-0.1972,-0.2052,-0.2093,-0.2057,-0.2038,-0.2083,-0.207,-0.2026,-0.1932,-0.1928,-0.1854,-0.1781,-0.175,-0.1761,-0.1796,-0.176,-0.1872,-0.1839,-0.1621,-0.1621,-0.1621,-0.1621,-0.1621,-0.1621,-0.1977,-0.1871,-0.1861,-0.175,-0.175,-0.1674,-0.1667,-0.1651,-0.1654,-0.1583,-0.157,-0.1582,-0.166,-0.1857,-0.179,-0.1706,-0.1689,-0.163,-0.1676,-0.1784,-0.181,-0.1835,-0.1809,-0.1589,-0.1589,-0.1485,-0.1485,-0.1484]},{"header":{"parameterUnit":"m.s-1","parameterCategory":2,"la1":30.2991,"la2":30.254,"lo1":-89.0895,"lo2":-89.0444,"dy":0.0017,"dx":0.0017,"nx":28,"ny":28,"refTime":"2025-03-23T09:00:00:Z","depth":"0","parameterNumber":3,"parameterNumberName":"V-component_of_CURRENTS"},"data":[0,0,0,0,0,0,0,0,0,0,0,0,0,0,0,0,0,0,0,0,0,0,0,0,0,0,0,0,0,0,0,0,0,0,0,0,0,0,0,0,0,0,0,0,0,0,0,0,0,0,0,0,0,0,0,0,0,0,-0.0014,-0.0012,0,0.0214,0.0217,0.022,0.0401,0.0402,0.0404,0.0405,0.0682,0.0688,0.0694,0,0,0,0,0,0,0,0,0,0,0,0,0,-0.0187,-0.0186,-0.0015,-0.0012,-0.0009,0.0214,0.0217,0.022,0.04,0.0402,0.0404,0.0406,0.068,0.0687,0.0694,0,0,0,0,0,0,0,0,0,0,0,0,0,-0.0049,-0.0185,-0.0015,0.0105,0.0118,0.0213,0.0217,0.0221,0.04,0.0402,0.0404,0.0407,0.0678,0.0686,0.0695,0.0705,0,0,0.0722,0.0726,0,0,0,0,0,0,0,0,-0.0057,-0.0042,0.0085,0.0097,0.0111,0.0279,0.0258,0.0385,0.0399,0.0296,0.0405,0.0408,0.0548,0.0567,0.0609,0.0718,0.073,0.0723,0.0729,0.0732,0.0735,0,0,0,0,0,0,0,-0.0067,-0.005,0.0079,0.0087,0.0103,0.0184,0.0206,0.0283,0.0409,0.0305,0.0318,0.0338,0.0556,0.06,0.0617,0.0734,0.0723,0.0731,0.0736,0.074,0.0868,0.0866,0,0,0,0,0,0,-0.0109,-0.006,0.0072,0.0086,0.0028,0.0185,0.0209,0.0225,0.0408,0.0437,0.0336,0.0345,0.0584,0.0606,0.0627,0.0651,0.0732,0.0741,0.0746,0.087,0.0868,0.0866,0,0,0,0,0,0,-0.0114,-0.01,0.0062,0.0016,0.0042,0.0184,0.0201,0.0228,0.0281,0.043,0.0461,0.0362,0.0586,0.0615,0.0678,0.0663,0.0745,0.0753,0.0873,0.087,0.0867,0.0697,0,0,0,0,0,0,-0.012,-0.0103,-0.0101,0.0013,0.0043,0.0113,0.02,0.0231,0.0288,0.0303,0.0462,0.049,0.059,0.0664,0.0687,0.0677,0.076,0.0875,0.0871,0.0868,0.0705,0.0689,0.0674,0,0,0,0,0,-0.0127,-0.0131,-0.0102,-0.0086,0.0039,0.0111,0.0135,0.0246,0.0286,0.0303,0.0392,0.0486,0.0658,0.0669,0.0697,0.0689,0.0877,0.0872,0.0868,0.0712,0.0692,0.0675,0,0,0,0,0,0,-0.0199,-0.0111,-0.0076,-0.0052,0.0017,0.0141,0.0164,0.0229,0.0314,0.0326,0.0463,0.0496,0.0547,0.0628,0.0637,0.0711,0.0782,0.0783,0.0653,0.0636,0.0621,0.0622,0.0767,0,0,0,0,0,-0.0223,-0.0207,-0.0111,-0.0097,-0.0072,0.0036,0.008,0.0149,0.0236,0.0278,0.0378,0.0474,0.0548,0.0598,0.0678,0.0716,0.0785,0.0726,0.0711,0.0698,0.0714,0.0758,0.0748,0.0851,0.0851,0.0851,0,0,-0.026,-0.0201,-0.0197,-0.0113,-0.0055,-0.0021,0.0069,0.0118,0.0151,0.029,0.0348,0.0424,0.0542,0.0588,0.0619,0.0658,0.0701,0.0692,0.068,0.0705,0.0752,0.0742,0.0734,0.0848,0.0849,0.0849,0,0,-0.0324,-0.0269,-0.0282,-0.0222,-0.0142,-0.0073,-0.007,0.0036,0.0088,0.0144,0.024,0.0299,0.0422,0.0499,0.0555,0.05,0.0613,0.0519,0.0456,0.0495,0.0488,0.0482,0.054,0.0541,0.0517,0.0516,0.0516,0,-0.0366,-0.0349,-0.0275,-0.0255,-0.0213,-0.0109,-0.0104,-0.004,0.0072,0.01,0.0141,0.0291,0.0386,0.0445,0.0431,0.047,0.0513,0.0515,0.0475,0.0471,0.0468,0.0531,0.0534,0.0508,0.0509,0.0509,0.051,0,-0.0428,-0.0402,-0.0404,-0.0345,-0.0302,-0.0274,-0.0186,-0.0149,-0.0085,-0.0013,0.0047,0.0157,0.0256,0.0277,0.035,0.0369,0.0412,0.0443,0.052,0.0448,0.0518,0.0524,0.0495,0.0498,0.0501,0.0503,0,0,-0.0543,-0.0464,-0.0461,-0.0438,-0.0337,-0.0307,-0.028,-0.0214,-0.0187,-0.0104,-0.0066,0.0037,0.0099,0.0164,0.0244,0.0282,0.0294,0.0346,0.0353,0.0403,0.039,0.0449,0.0463,0.0306,0.0306,0.0307,0.0441,0,-0.0605,-0.0592,-0.0535,-0.0522,-0.0502,-0.0404,-0.0382,-0.0313,-0.0238,-0.0179,-0.0083,-0.0011,0.0055,0.0098,0.0139,0.0271,0.0305,0.0256,0.0457,0.0464,0.0524,0.047,0.0535,0.0663,0.0448,0.0449,0.045,0,-0.0673,-0.0645,-0.0648,-0.0582,-0.0572,-0.0553,-0.0486,-0.0449,-0.0349,-0.0293,-0.0219,-0.0121,-0.003,0.0023,0.0188,0.0151,0.0256,0.0344,0.0351,0.048,0.0536,0.0705,0.0684,0.0871,0.0462,0.0461,0.046,0,-0.076,-0.0719,-0.0721,-0.0691,-0.0614,-0.0611,-0.0575,-0.049,-0.0458,-0.0358,-0.0314,-0.02,-0.0115,0.0002,0.0206,0.0192,0.0391,0.0398,0.0546,0.0552,0.0691,0.0708,0.088,0.0493,0.0492,0.0492,0.0491,0,-0.0811,-0.0812,-0.0762,-0.0748,-0.0763,-0.0688,-0.0686,-0.063,-0.0551,-0.0503,-0.038,-0.0304,-0.0119,0.0032,0.0182,0.0401,0.0375,0.0542,0.0588,0.0631,0.0641,0.088,0.094,0.0497,0.0496,0.0495,0.0494,0,-0.0883,-0.0848,-0.0847,-0.0801,-0.0796,-0.0804,-0.076,-0.0748,-0.0661,-0.0593,-0.0561,-0.0373,-0.0164,0.0034,0.0269,0.0393,0.0702,0.0661,0.0711,0.076,0.1045,0.109,0.1313,0.1414,0.083,0.0832,0.0834,0,-0.0911,-0.0915,-0.0901,-0.0916,-0.0897,-0.0897,-0.0896,-0.0818,-0.0788,-0.0617,-0.0585,-0.0367,-0.0177,0.0187,0.0443,0.0712,0.083,0.0913,0.0893,0.1079,0.1164,0.1188,0.1258,0.101,0.1013,0.1016,0.1018,0,-0.0954,-0.0955,-0.0954,-0.0993,-0.1006,-0.1013,-0.0994,-0.0986,-0.0868,-0.076,-0.0572,-0.0402,-0.0027,0.0333,0.0675,0.0831,0.1052,0.0972,0.1158,0.1314,0.1363,0.1476,0.0913,0.1041,0.1038,0.1037,0.1036,0.1035,-0.0989,-0.1011,-0.1022,-0.1059,-0.1086,-0.1103,-0.1093,-0.1019,-0.0929,-0.0691,-0.0563,-0.0208,0.0252,0.0758,0.0935,0.1341,0.126,0.146,0.15,0.1508,0.1605,0.1095,0.1271,0.127,0.1269,0.1268,0.1268,0,-0.101,-0.1038,-0.1084,-0.1121,-0.1166,-0.1158,-0.1133,-0.1047,-0.0893,-0.0604,-0.0357,0.0235,0.0714,0.1134,0.166,0.1872,0.1898,0.197,0.2034,0.2079,0.1643,0.1652,0.1928,0.1928,0.1928,0.1927,0.1927,0.1927,-0.1018,-0.1065,-0.109,-0.117,-0.1203,-0.1205,-0.1177,-0.0976,-0.0742,-0.024,0.0173,0.0476,0.102,0.183,0.234,0.2375,0.2555,0.252,0.2603,0.2323,0.2278,0.2236,0.2262,0.2661,0.2662,0.3047,0.3051,0.3054]}],[{"header":{"parameterUnit":"m.s-1","parameterCategory":2,"la1":30.2991,"la2":30.254,"lo1":-89.0895,"lo2":-89.0444,"dy":0.0017,"dx":0.0017,"nx":28,"ny":28,"refTime":"2025-03-23T09:00:00:Z","depth":"2","parameterNumber":2,"parameterNumberName":"U-component_of_CURRENTS"},"data":[0,0,0,0,0,0,0,0,0,0,0,0,0,0,0,0,0,0,0,0,0,0,0,0,0,0,0,0,0,0,0,0,0,0,0,0,0,0,0,0,0,0,0,0,0,0,0,0,0,0,0,0,0,0,0,0,0,0,-0.3085,-0.3086,0,-0.308,-0.308,-0.308,-0.3095,-0.3095,-0.3096,-0.3097,-0.3092,-0.3091,-0.309,0,0,0,0,0,0,0,0,0,0,0,0,0,-0.3053,-0.3054,-0.3085,-0.3086,-0.3086,-0.308,-0.308,-0.3079,-0.3095,-0.3095,-0.3096,-0.3097,-0.3092,-0.3091,-0.309,0,0,0,0,0,0,0,0,0,0,0,0,0,-0.3056,-0.3054,-0.3085,-0.3095,-0.3097,-0.308,-0.308,-0.3079,-0.3094,-0.3095,-0.3097,-0.3098,-0.3092,-0.3091,-0.309,-0.3057,0,0,-0.3086,-0.3085,0,0,0,0,0,0,0,0,-0.3056,-0.3057,-0.3094,-0.3095,-0.3096,-0.3093,-0.3067,-0.3073,-0.3094,-0.3091,-0.3097,-0.3098,-0.3093,-0.3092,-0.3083,-0.3057,-0.3057,-0.3085,-0.3085,-0.3084,-0.3084,0,0,0,0,0,0,0,-0.3056,-0.3057,-0.308,-0.3094,-0.3095,-0.3082,-0.3083,-0.3068,-0.3083,-0.3092,-0.3094,-0.3098,-0.3094,-0.3084,-0.3083,-0.3057,-0.3086,-0.3084,-0.3084,-0.3083,-0.3116,-0.3118,0,0,0,0,0,0,-0.3065,-0.3057,-0.308,-0.308,-0.3083,-0.3082,-0.3084,-0.3089,-0.3083,-0.3084,-0.3097,-0.3099,-0.3086,-0.3085,-0.3083,-0.3093,-0.3084,-0.3083,-0.3082,-0.3115,-0.3117,-0.3119,0,0,0,0,0,0,-0.3065,-0.3068,-0.308,-0.3071,-0.3072,-0.3082,-0.3088,-0.3089,-0.3121,-0.3088,-0.3089,-0.3134,-0.3087,-0.3085,-0.3109,-0.3091,-0.3082,-0.3081,-0.3113,-0.3115,-0.3118,-0.3081,0,0,0,0,0,0,-0.3064,-0.3067,-0.3081,-0.3072,-0.3073,-0.3103,-0.3087,-0.3088,-0.3121,-0.3124,-0.3119,-0.3117,-0.3088,-0.3111,-0.3107,-0.3089,-0.308,-0.3111,-0.3114,-0.3117,-0.308,-0.3082,-0.3084,0,0,0,0,0,-0.3063,-0.3015,-0.3082,-0.3085,-0.309,-0.3105,-0.3105,-0.3112,-0.3123,-0.3144,-0.3144,-0.3119,-0.3129,-0.3111,-0.3107,-0.3087,-0.3109,-0.3113,-0.3117,-0.308,-0.3082,-0.3084,0,0,0,0,0,0,-0.3004,-0.3014,-0.3085,-0.3052,-0.312,-0.311,-0.311,-0.3137,-0.3152,-0.3151,-0.3136,-0.3134,-0.3142,-0.3143,-0.3125,-0.3116,-0.3116,-0.312,-0.309,-0.3092,-0.3094,-0.3065,-0.3079,0,0,0,0,0,-0.3011,-0.3011,-0.3049,-0.3064,-0.3078,-0.3123,-0.3133,-0.3149,-0.3157,-0.3166,-0.3166,-0.3163,-0.3146,-0.3147,-0.3137,-0.3134,-0.3111,-0.3127,-0.3129,-0.313,-0.311,-0.3061,-0.3054,-0.3131,-0.3131,-0.3131,0,0,-0.3009,-0.302,-0.3028,-0.306,-0.3103,-0.3126,-0.3131,-0.315,-0.3158,-0.3159,-0.3168,-0.3169,-0.3152,-0.3139,-0.3143,-0.314,-0.3106,-0.3135,-0.3135,-0.3113,-0.3064,-0.3055,-0.3048,-0.3134,-0.3133,-0.3133,0,0,-0.3,-0.3016,-0.3022,-0.3056,-0.3117,-0.3135,-0.3159,-0.3181,-0.3175,-0.3208,-0.3185,-0.3185,-0.32,-0.315,-0.3133,-0.3149,-0.3117,-0.3167,-0.314,-0.3093,-0.3084,-0.3076,-0.3062,-0.3052,-0.3166,-0.3166,-0.3166,0,-0.299,-0.3003,-0.3038,-0.3054,-0.3053,-0.315,-0.3148,-0.3166,-0.32,-0.317,-0.3221,-0.3196,-0.319,-0.3118,-0.3126,-0.3141,-0.313,-0.312,-0.3088,-0.308,-0.3072,-0.3058,-0.3048,-0.3165,-0.3165,-0.3165,-0.3165,0,-0.2991,-0.3009,-0.3004,-0.3069,-0.3092,-0.3088,-0.3126,-0.3149,-0.318,-0.3188,-0.316,-0.316,-0.3138,-0.3144,-0.3139,-0.3072,-0.3089,-0.3089,-0.3065,-0.306,-0.3049,-0.3039,-0.3163,-0.3163,-0.3164,-0.3164,0,0,-0.2901,-0.2974,-0.2976,-0.3004,-0.3057,-0.3069,-0.3082,-0.3077,-0.3075,-0.3119,-0.3081,-0.3063,-0.3074,-0.3057,-0.3045,-0.3015,-0.2965,-0.3035,-0.3034,-0.299,-0.2885,-0.2819,-0.2803,-0.2957,-0.2955,-0.2953,-0.2906,0,-0.2883,-0.288,-0.2917,-0.2949,-0.2942,-0.2989,-0.2999,-0.3022,-0.3049,-0.3054,-0.3025,-0.3019,-0.3036,-0.3033,-0.2997,-0.298,-0.2935,-0.2979,-0.2923,-0.2922,-0.2835,-0.2787,-0.258,-0.2513,-0.2897,-0.2895,-0.2894,0,-0.2851,-0.2842,-0.2817,-0.2855,-0.2853,-0.2886,-0.2879,-0.2904,-0.2925,-0.2938,-0.2929,-0.2952,-0.2904,-0.2943,-0.2872,-0.2905,-0.2881,-0.2875,-0.2872,-0.2806,-0.2835,-0.2579,-0.2481,-0.2877,-0.2878,-0.288,-0.2881,0,-0.274,-0.2769,-0.2726,-0.273,-0.279,-0.2769,-0.281,-0.2849,-0.2855,-0.2867,-0.2902,-0.2858,-0.2865,-0.282,-0.2826,-0.2846,-0.2769,-0.2789,-0.2696,-0.2694,-0.25,-0.2483,-0.2702,-0.2702,-0.2702,-0.2703,-0.2703,0,-0.264,-0.2625,-0.2675,-0.2642,-0.2621,-0.2692,-0.2687,-0.2722,-0.2774,-0.2782,-0.2834,-0.2833,-0.2839,-0.2819,-0.2797,-0.2717,-0.2734,-0.2662,-0.2654,-0.249,-0.2474,-0.2778,-0.2787,-0.2701,-0.2701,-0.2702,-0.2702,0,-0.2528,-0.256,-0.2531,-0.2553,-0.2571,-0.2558,-0.2644,-0.2648,-0.2723,-0.2738,-0.2746,-0.2808,-0.2773,-0.2773,-0.2715,-0.268,-0.2612,-0.2571,-0.24,-0.2371,-0.2581,-0.259,-0.2452,-0.2449,-0.2446,-0.2444,-0.2442,0,-0.2451,-0.2419,-0.2447,-0.2439,-0.2444,-0.2464,-0.2484,-0.259,-0.2612,-0.2706,-0.2694,-0.271,-0.2667,-0.2592,-0.2504,-0.2415,-0.2518,-0.2209,-0.2183,-0.2537,-0.2545,-0.2558,-0.2571,-0.1934,-0.1928,-0.1924,-0.192,0,-0.2281,-0.2309,-0.2284,-0.2284,-0.2297,-0.2326,-0.2368,-0.2394,-0.2506,-0.2536,-0.2547,-0.2526,-0.2461,-0.2274,-0.2195,-0.2124,-0.2209,-0.2108,-0.2472,-0.204,-0.2046,-0.2056,-0.2085,-0.1876,-0.1881,-0.1884,-0.1886,-0.1888,-0.2154,-0.2118,-0.2111,-0.2105,-0.2134,-0.215,-0.2132,-0.2197,-0.2223,-0.2222,-0.2308,-0.2196,-0.218,-0.1919,-0.183,-0.1764,-0.1912,-0.1845,-0.186,-0.188,-0.1838,-0.1839,-0.1625,-0.1628,-0.163,-0.1633,-0.1634,0,-0.1962,-0.1954,-0.1932,-0.1928,-0.1898,-0.198,-0.2016,-0.1961,-0.1928,-0.1944,-0.1911,-0.167,-0.1566,-0.1558,-0.1373,-0.1363,-0.1352,-0.1329,-0.1311,-0.1353,-0.1391,-0.1326,-0.0976,-0.0974,-0.0973,-0.0971,0,0,-0.186,-0.1778,-0.1776,-0.1679,-0.1685,-0.1601,-0.159,-0.1538,-0.1511,-0.1389,-0.1319,-0.1427,-0.1466,-0.1202,-0.1163,-0.1034,-0.118,-0.0982,-0.1502,-0.1518,-0.1554,-0.1673,-0.1617,0,0,0,0,0]},{"header":{"parameterUnit":"m.s-1","parameterCategory":2,"la1":30.2991,"la2":30.254,"lo1":-89.0895,"lo2":-89.0444,"dy":0.0017,"dx":0.0017,"nx":28,"ny":28,"refTime":"2025-03-23T09:00:00:Z","depth":"2","parameterNumber":3,"parameterNumberName":"V-component_of_CURRENTS"},"data":[0,0,0,0,0,0,0,0,0,0,0,0,0,0,0,0,0,0,0,0,0,0,0,0,0,0,0,0,0,0,0,0,0,0,0,0,0,0,0,0,0,0,0,0,0,0,0,0,0,0,0,0,0,0,0,0,0,0,-0.0404,-0.0402,0,-0.0242,-0.0241,-0.024,-0.0124,-0.0122,-0.012,-0.0119,0.0078,0.0081,0.0085,0,0,0,0,0,0,0,0,0,0,0,0,0,-0.0548,-0.0547,-0.0405,-0.0401,-0.0398,-0.0242,-0.0241,-0.024,-0.0125,-0.0122,-0.012,-0.0118,0.0077,0.0081,0.0085,0,0,0,0,0,0,0,0,0,0,0,0,0,-0.0457,-0.0547,-0.0405,-0.0314,-0.0303,-0.0242,-0.0241,-0.0239,-0.0125,-0.0122,-0.0119,-0.0117,0.0076,0.0081,0.0086,0.0058,0,0,0.0101,0.0103,0,0,0,0,0,0,0,0,-0.0462,-0.0453,-0.033,-0.032,-0.0308,-0.019,-0.0218,-0.0134,-0.0126,-0.0205,-0.0119,-0.0115,-0.0003,0.0008,0.0016,0.0067,0.0076,0.0102,0.0105,0.0107,0.0108,0,0,0,0,0,0,0,-0.0469,-0.0459,-0.0352,-0.0327,-0.0313,-0.0257,-0.0243,-0.0203,-0.0131,-0.0198,-0.0186,-0.0151,0.0002,0.001,0.0022,0.0079,0.0102,0.0106,0.0109,0.0111,0.0251,0.0251,0,0,0,0,0,0,-0.0473,-0.0465,-0.0356,-0.0346,-0.0366,-0.0256,-0.024,-0.024,-0.0132,-0.0109,-0.0154,-0.0146,0.0,0.0015,0.0029,0.0091,0.0107,0.0112,0.0115,0.025,0.0251,0.0252,0,0,0,0,0,0,-0.0477,-0.0466,-0.0363,-0.039,-0.0371,-0.0256,-0.0257,-0.0238,-0.0191,-0.0096,-0.0075,-0.0119,0.0003,0.0022,0.0107,0.0097,0.0114,0.0119,0.0249,0.025,0.0251,0.0159,0,0,0,0,0,0,-0.0483,-0.047,-0.047,-0.0392,-0.037,-0.0301,-0.0258,-0.0237,-0.0171,-0.0159,-0.0061,-0.0041,0.0007,0.0099,0.0112,0.0104,0.0123,0.0249,0.025,0.0251,0.0162,0.0157,0.0153,0,0,0,0,0,-0.0489,-0.0533,-0.0472,-0.0457,-0.0375,-0.0299,-0.0284,-0.0198,-0.0172,-0.0149,-0.0075,-0.0043,0.0115,0.0103,0.0118,0.0112,0.0248,0.0249,0.0251,0.0163,0.0158,0.0153,0,0,0,0,0,0,-0.0585,-0.052,-0.0454,-0.0468,-0.036,-0.0274,-0.0253,-0.0193,-0.0124,-0.0115,-0.0032,-0.0008,0.0056,0.0104,0.0089,0.016,0.0185,0.019,0.0114,0.0109,0.0105,0.0102,0.0127,0,0,0,0,0,-0.0604,-0.0604,-0.0504,-0.0484,-0.0454,-0.0346,-0.0304,-0.0242,-0.0167,-0.0133,-0.006,0.001,0.0063,0.0106,0.0159,0.0199,0.0247,0.0207,0.0203,0.0199,0.021,0.0264,0.0265,0.0256,0.0256,0.0256,0,0,-0.0623,-0.058,-0.0575,-0.0499,-0.0425,-0.0378,-0.0317,-0.0256,-0.0209,-0.0126,-0.0059,-0.0004,0.0071,0.0118,0.015,0.0165,0.0227,0.0201,0.0196,0.021,0.0265,0.0266,0.0267,0.0257,0.0257,0.0257,0,0,-0.0652,-0.0631,-0.0632,-0.0563,-0.045,-0.0397,-0.0373,-0.0278,-0.0233,-0.0155,-0.0097,-0.0032,0.0058,0.0108,0.0143,0.0152,0.0198,0.0159,0.014,0.0191,0.0191,0.0193,0.0246,0.0253,0.0161,0.0161,0.0161,0,-0.0677,-0.0654,-0.0607,-0.0572,-0.0522,-0.0407,-0.0378,-0.0323,-0.0202,-0.0174,-0.0134,-0.0012,0.0054,0.0105,0.0113,0.014,0.0176,0.0143,0.0182,0.0185,0.0187,0.0242,0.0251,0.0157,0.0158,0.0158,0.0158,0,-0.0682,-0.0654,-0.065,-0.0572,-0.0523,-0.048,-0.0393,-0.0344,-0.0281,-0.0214,-0.0142,-0.0055,0.0023,0.0042,0.0086,0.0126,0.0146,0.0161,0.0185,0.0182,0.0241,0.0251,0.0151,0.0152,0.0154,0.0155,0,0,-0.0779,-0.0682,-0.0676,-0.063,-0.053,-0.0494,-0.0443,-0.0367,-0.0334,-0.0231,-0.0186,-0.0093,-0.0047,-0.0002,0.0048,0.0101,0.0151,0.0136,0.014,0.0172,0.0263,0.0304,0.032,0.016,0.0162,0.0163,0.0292,0,-0.0783,-0.0743,-0.0698,-0.0638,-0.0609,-0.0525,-0.0488,-0.0408,-0.0334,-0.0267,-0.0182,-0.0117,-0.0066,-0.0036,0.0023,0.012,0.0176,0.0115,0.0278,0.0284,0.0306,0.0333,0.0282,0.0395,0.0303,0.0305,0.0306,0,-0.0805,-0.0771,-0.0741,-0.0669,-0.0657,-0.0621,-0.0557,-0.0504,-0.04,-0.0347,-0.0268,-0.0188,-0.0093,-0.0052,0.0112,0.0066,0.0162,0.0239,0.0246,0.0328,0.0345,0.0389,0.0418,0.0324,0.0323,0.0322,0.032,0,-0.0878,-0.0811,-0.0795,-0.0763,-0.0672,-0.0663,-0.0623,-0.0534,-0.0502,-0.0396,-0.0353,-0.0234,-0.0162,-0.0036,0.0139,0.0122,0.0325,0.0321,0.045,0.0454,0.047,0.0472,0.0441,0.0441,0.044,0.044,0.044,0,-0.091,-0.0892,-0.083,-0.0809,-0.081,-0.0731,-0.0719,-0.0659,-0.0578,-0.053,-0.0407,-0.0335,-0.0153,-0.0009,0.013,0.0334,0.0322,0.0465,0.0497,0.0437,0.0435,0.0422,0.0418,0.0445,0.0444,0.0443,0.0442,0,-0.0967,-0.0921,-0.0901,-0.0842,-0.0835,-0.0837,-0.079,-0.0773,-0.0685,-0.0617,-0.0586,-0.0403,-0.0206,-0.0015,0.0215,0.0331,0.0512,0.0585,0.0509,0.053,0.0606,0.0596,0.0736,0.0739,0.0741,0.0743,0.0745,0,-0.0984,-0.0976,-0.0949,-0.096,-0.0936,-0.0928,-0.0925,-0.0844,-0.0812,-0.0646,-0.0616,-0.0407,-0.0231,0.0117,0.0344,0.0598,0.0594,0.0696,0.0665,0.0623,0.064,0.0626,0.0613,0.0647,0.0647,0.0648,0.0648,0,-0.1014,-0.1012,-0.1001,-0.1034,-0.1043,-0.1044,-0.1022,-0.1014,-0.0895,-0.0794,-0.0617,-0.0458,-0.0117,0.0164,0.0482,0.0616,0.0648,0.0716,0.0705,0.0577,0.0549,0.0561,0.055,0.0653,0.0653,0.0652,0.0652,0.0652,-0.1048,-0.1064,-0.1067,-0.1099,-0.1122,-0.1137,-0.1128,-0.1063,-0.0979,-0.079,-0.0639,-0.0356,-0.0112,0.0356,0.056,0.0742,0.0744,0.078,0.0774,0.0769,0.0733,0.0709,0.0838,0.0838,0.0839,0.0839,0.0839,0,-0.1069,-0.109,-0.113,-0.1162,-0.1206,-0.1195,-0.1171,-0.1122,-0.0994,-0.0782,-0.0565,-0.0263,0.0079,0.0337,0.0632,0.0809,0.077,0.0827,0.0733,0.0728,0.0723,0.0681,0.0775,0.0775,0.0776,0.0776,0,0,-0.108,-0.1118,-0.1139,-0.1218,-0.125,-0.1263,-0.124,-0.1123,-0.0964,-0.0746,-0.0514,-0.0219,0.0101,0.0295,0.0498,0.0649,0.0638,0.0655,0.0686,0.0543,0.0536,0.0675,0.0603,0,0,0,0,0]}],[{"header":{"parameterUnit":"m.s-1","parameterCategory":2,"la1":30.2991,"la2":30.254,"lo1":-89.0895,"lo2":-89.0444,"dy":0.0017,"dx":0.0017,"nx":28,"ny":28,"refTime":"2025-03-23T09:00:00:Z","depth":"4","parameterNumber":2,"parameterNumberName":"U-component_of_CURRENTS"},"data":[0,0,0,0,0,0,0,0,0,0,0,0,0,0,0,0,0,0,0,0,0,0,0,0,0,0,0,0,0,0,0,0,0,0,0,0,0,0,0,0,0,0,0,0,0,0,0,0,0,0,0,0,0,0,0,0,0,0,-0.1554,-0.1555,0,-0.1657,-0.1658,-0.1659,-0.1649,-0.1648,-0.1647,-0.1645,-0.1725,-0.1728,-0.1731,0,0,0,0,0,0,0,0,0,0,0,0,0,-0.1428,-0.1429,-0.1554,-0.1556,-0.1557,-0.1657,-0.1658,-0.1659,-0.1649,-0.1648,-0.1646,-0.1645,-0.1724,-0.1728,-0.1732,0,0,0,0,0,0,0,0,0,0,0,0,0,-0.1499,-0.143,-0.1554,-0.1567,-0.1569,-0.1656,-0.1658,-0.1659,-0.165,-0.1648,-0.1646,-0.1644,-0.1722,-0.1727,-0.1732,-0.1803,0,0,-0.1748,-0.175,0,0,0,0,0,0,0,0,-0.1494,-0.1503,-0.1563,-0.1566,-0.1569,-0.1641,-0.1643,-0.1707,-0.165,-0.1616,-0.1645,-0.1643,-0.1698,-0.1705,-0.1725,-0.1806,-0.181,-0.1748,-0.1751,-0.1753,-0.1755,0,0,0,0,0,0,0,-0.1489,-0.1499,-0.1592,-0.1565,-0.1568,-0.1594,-0.1601,-0.1655,-0.1664,-0.1619,-0.1619,-0.1636,-0.1699,-0.172,-0.1727,-0.1811,-0.1748,-0.1752,-0.1756,-0.1757,-0.195,-0.1952,0,0,0,0,0,0,-0.1481,-0.1494,-0.1589,-0.1595,-0.1529,-0.1598,-0.1605,-0.1617,-0.1664,-0.167,-0.1637,-0.1635,-0.1712,-0.1721,-0.1729,-0.1814,-0.1753,-0.1758,-0.1761,-0.1948,-0.195,-0.1953,0,0,0,0,0,0,-0.1478,-0.1489,-0.1584,-0.1549,-0.1564,-0.1602,-0.1615,-0.162,-0.1665,-0.1679,-0.1684,-0.1679,-0.1711,-0.1722,-0.1794,-0.1817,-0.176,-0.1765,-0.1945,-0.1949,-0.1951,-0.1986,0,0,0,0,0,0,-0.1474,-0.1487,-0.1501,-0.1549,-0.1565,-0.1637,-0.1618,-0.1624,-0.1678,-0.1676,-0.1717,-0.172,-0.171,-0.1787,-0.1799,-0.1823,-0.1769,-0.1943,-0.1947,-0.195,-0.1982,-0.1989,-0.1996,0,0,0,0,0,-0.1469,-0.1483,-0.15,-0.1513,-0.158,-0.1638,-0.1649,-0.1668,-0.1682,-0.1701,-0.1737,-0.172,-0.1819,-0.1794,-0.1808,-0.1833,-0.1941,-0.1946,-0.195,-0.1979,-0.1988,-0.1996,0,0,0,0,0,0,-0.1423,-0.1486,-0.1505,-0.1535,-0.1588,-0.1637,-0.1671,-0.1697,-0.1745,-0.1755,-0.1765,-0.1772,-0.1837,-0.1847,-0.1818,-0.1901,-0.1872,-0.188,-0.1889,-0.1898,-0.1905,-0.1904,-0.1773,0,0,0,0,0,-0.1426,-0.1471,-0.1521,-0.1558,-0.1586,-0.1644,-0.1678,-0.1697,-0.1745,-0.1766,-0.1797,-0.1834,-0.1869,-0.1892,-0.1924,-0.199,-0.1979,-0.2012,-0.2019,-0.2025,-0.2035,-0.2046,-0.2054,-0.1968,-0.1968,-0.1968,0,0,-0.1423,-0.1468,-0.1492,-0.1555,-0.1606,-0.1654,-0.1659,-0.1723,-0.1771,-0.1771,-0.1853,-0.1872,-0.1896,-0.1948,-0.1978,-0.1958,-0.2042,-0.2031,-0.2035,-0.2043,-0.2052,-0.206,-0.2067,-0.1971,-0.1971,-0.197,0,0,-0.1452,-0.1482,-0.1533,-0.1572,-0.1651,-0.1687,-0.1714,-0.1785,-0.182,-0.1903,-0.1905,-0.1939,-0.2017,-0.2015,-0.2029,-0.2107,-0.2083,-0.2124,-0.2157,-0.2168,-0.2174,-0.218,-0.2159,-0.2163,-0.2122,-0.2122,-0.2122,0,-0.1456,-0.1516,-0.1556,-0.1607,-0.1655,-0.1706,-0.1768,-0.1812,-0.1896,-0.194,-0.1931,-0.2034,-0.2039,-0.2095,-0.2104,-0.212,-0.212,-0.2116,-0.2174,-0.218,-0.2185,-0.2163,-0.2166,-0.2124,-0.2124,-0.2124,-0.2123,0,-0.1505,-0.1564,-0.1601,-0.1687,-0.1734,-0.1799,-0.1858,-0.1921,-0.1977,-0.2014,-0.2099,-0.2108,-0.2156,-0.216,-0.2156,-0.2203,-0.2189,-0.2181,-0.2143,-0.2195,-0.2169,-0.2172,-0.2127,-0.2126,-0.2126,-0.2125,0,0,-0.1496,-0.1621,-0.1636,-0.1692,-0.1786,-0.183,-0.1923,-0.2018,-0.2074,-0.2135,-0.2203,-0.2245,-0.2244,-0.226,-0.2253,-0.2256,-0.2268,-0.2239,-0.2239,-0.2204,-0.2282,-0.212,-0.2107,-0.2279,-0.228,-0.2281,-0.2242,0,-0.1543,-0.1658,-0.1708,-0.1815,-0.1876,-0.1944,-0.2016,-0.2095,-0.2158,-0.222,-0.2247,-0.2293,-0.2284,-0.2293,-0.2304,-0.2282,-0.2282,-0.2279,-0.2252,-0.225,-0.2087,-0.2107,-0.2285,-0.2244,-0.2244,-0.2245,-0.2245,0,-0.1559,-0.1649,-0.1769,-0.1892,-0.1925,-0.1986,-0.211,-0.2177,-0.2262,-0.2304,-0.2357,-0.2367,-0.2392,-0.2361,-0.2366,-0.2372,-0.2338,-0.2311,-0.2308,-0.2149,-0.2094,-0.2189,-0.225,-0.2249,-0.2249,-0.2249,-0.2248,0,-0.1521,-0.1674,-0.1786,-0.1823,-0.1965,-0.2038,-0.2112,-0.2208,-0.2263,-0.2345,-0.237,-0.2421,-0.2422,-0.2422,-0.2368,-0.2379,-0.2345,-0.2344,-0.2171,-0.2158,-0.23,-0.2295,-0.2346,-0.2346,-0.2346,-0.2347,-0.2347,0,-0.1516,-0.1595,-0.178,-0.1827,-0.1939,-0.2032,-0.2131,-0.2205,-0.229,-0.2319,-0.2397,-0.2398,-0.244,-0.2423,-0.2387,-0.2271,-0.2362,-0.2173,-0.2139,-0.2314,-0.2311,-0.23,-0.2295,-0.2345,-0.2345,-0.2346,-0.2346,0,-0.1431,-0.1556,-0.1682,-0.187,-0.192,-0.1991,-0.2125,-0.2167,-0.2268,-0.2303,-0.2324,-0.2389,-0.2351,-0.236,-0.2324,-0.2256,-0.218,-0.2117,-0.2284,-0.2261,-0.1985,-0.1983,-0.1926,-0.192,-0.1915,-0.1911,-0.1907,0,-0.1397,-0.1464,-0.1686,-0.1738,-0.1826,-0.1942,-0.1994,-0.2133,-0.216,-0.2259,-0.2244,-0.2264,-0.2277,-0.2095,-0.2134,-0.2053,-0.2029,-0.1992,-0.2011,-0.197,-0.1944,-0.195,-0.1954,-0.1899,-0.1898,-0.1897,-0.1895,0,-0.1332,-0.1434,-0.1533,-0.1654,-0.1738,-0.182,-0.1908,-0.1917,-0.2038,-0.2152,-0.2087,-0.2055,-0.2006,-0.1967,-0.1912,-0.1863,-0.2022,-0.1939,-0.195,-0.1967,-0.1937,-0.1917,-0.1928,-0.1878,-0.188,-0.1882,-0.1883,0,-0.1269,-0.1322,-0.1457,-0.1534,-0.1628,-0.1655,-0.1735,-0.1752,-0.1803,-0.1915,-0.188,-0.19,-0.1964,-0.1864,-0.1814,-0.175,-0.1732,-0.1691,-0.1715,-0.1735,-0.1691,-0.1625,-0.1434,0,0,0,0,0,-0.1195,-0.1229,-0.1308,-0.1392,-0.1475,-0.1523,-0.1641,-0.1717,-0.1838,-0.1734,-0.1802,-0.1739,-0.1666,-0.1687,-0.1577,-0.1738,-0.1748,-0.1606,-0.1718,-0.178,-0.18,-0.1767,0,0,0,0,0,0,-0.1136,-0.1215,-0.1264,-0.1246,-0.1252,-0.1327,-0.1394,-0.1487,-0.1445,-0.1565,-0.1524,-0.162,-0.1567,-0.167,-0.1527,-0.1534,-0.1569,-0.1636,-0.1631,-0.1769,-0.1787,-0.1803,-0.1776,0,0,0,0,0]},{"header":{"parameterUnit":"m.s-1","parameterCategory":2,"la1":30.2991,"la2":30.254,"lo1":-89.0895,"lo2":-89.0444,"dy":0.0017,"dx":0.0017,"nx":28,"ny":28,"refTime":"2025-03-23T09:00:00:Z","depth":"4","parameterNumber":3,"parameterNumberName":"V-component_of_CURRENTS"},"data":[0,0,0,0,0,0,0,0,0,0,0,0,0,0,0,0,0,0,0,0,0,0,0,0,0,0,0,0,0,0,0,0,0,0,0,0,0,0,0,0,0,0,0,0,0,0,0,0,0,0,0,0,0,0,0,0,0,0,-0.054,-0.0539,0,-0.0485,-0.0485,-0.0485,-0.051,-0.0511,-0.0512,-0.0513,-0.0457,-0.0454,-0.0452,0,0,0,0,0,0,0,0,0,0,0,0,0,-0.0601,-0.06,-0.054,-0.0539,-0.0538,-0.0485,-0.0485,-0.0485,-0.051,-0.0511,-0.0512,-0.0513,-0.0457,-0.0455,-0.0452,0,0,0,0,0,0,0,0,0,0,0,0,0,-0.0569,-0.06,-0.0541,-0.0539,-0.0538,-0.0486,-0.0485,-0.0485,-0.051,-0.0511,-0.0512,-0.0513,-0.0458,-0.0455,-0.0452,-0.0407,0,0,-0.0441,-0.044,0,0,0,0,0,0,0,0,-0.0571,-0.0568,-0.0541,-0.0539,-0.0538,-0.0501,-0.0486,-0.0457,-0.051,-0.0527,-0.0513,-0.0514,-0.0466,-0.0462,-0.0458,-0.0404,-0.0402,-0.0441,-0.0439,-0.0438,-0.0437,0,0,0,0,0,0,0,-0.0573,-0.057,-0.0525,-0.0539,-0.0537,-0.0518,-0.0517,-0.0481,-0.0495,-0.0526,-0.0526,-0.051,-0.0467,-0.0461,-0.0457,-0.0401,-0.0441,-0.0438,-0.0436,-0.0435,-0.0327,-0.0326,0,0,0,0,0,0,-0.0569,-0.0572,-0.0527,-0.0523,-0.0551,-0.0516,-0.0514,-0.0516,-0.0496,-0.0492,-0.0509,-0.0511,-0.0466,-0.0461,-0.0455,-0.0411,-0.0438,-0.0434,-0.0433,-0.0328,-0.0327,-0.0326,0,0,0,0,0,0,-0.0571,-0.0567,-0.0529,-0.054,-0.0533,-0.0514,-0.0516,-0.0514,-0.0513,-0.0482,-0.048,-0.0508,-0.0467,-0.046,-0.0418,-0.0409,-0.0433,-0.043,-0.0329,-0.0328,-0.0327,-0.0317,0,0,0,0,0,0,-0.0574,-0.0568,-0.0578,-0.054,-0.0532,-0.0507,-0.0514,-0.0512,-0.0498,-0.0501,-0.048,-0.0476,-0.0468,-0.0423,-0.0415,-0.0405,-0.0427,-0.033,-0.0328,-0.0327,-0.0318,-0.0315,-0.0313,0,0,0,0,0,-0.0576,-0.0584,-0.0579,-0.0574,-0.0544,-0.0507,-0.0502,-0.0495,-0.0497,-0.0499,-0.0473,-0.0477,-0.0408,-0.0419,-0.0409,-0.0399,-0.0331,-0.0329,-0.0327,-0.0319,-0.0316,-0.0313,0,0,0,0,0,0,-0.0619,-0.0585,-0.058,-0.058,-0.0547,-0.0509,-0.0505,-0.0492,-0.0473,-0.0476,-0.0454,-0.0447,-0.0411,-0.04,-0.0413,-0.0363,-0.0374,-0.037,-0.0371,-0.0368,-0.0365,-0.0359,-0.0425,0,0,0,0,0,-0.0629,-0.063,-0.0585,-0.0586,-0.0568,-0.0534,-0.052,-0.051,-0.0479,-0.0475,-0.0452,-0.0426,-0.0393,-0.0378,-0.0353,-0.0314,-0.0281,-0.0305,-0.0302,-0.03,-0.0288,-0.021,-0.0198,-0.032,-0.032,-0.032,0,0,-0.064,-0.0625,-0.0624,-0.0595,-0.057,-0.0542,-0.0531,-0.0507,-0.0483,-0.0467,-0.0435,-0.0413,-0.038,-0.0345,-0.0329,-0.0336,-0.0252,-0.0297,-0.0296,-0.0285,-0.0206,-0.0194,-0.0184,-0.0319,-0.0319,-0.0319,0,0,-0.0654,-0.0652,-0.0648,-0.0619,-0.0578,-0.0556,-0.0546,-0.0502,-0.0486,-0.0443,-0.0425,-0.0385,-0.0348,-0.0314,-0.0293,-0.0253,-0.0239,-0.0263,-0.0242,-0.0167,-0.0156,-0.0146,-0.0106,-0.0093,-0.0263,-0.0263,-0.0263,0,-0.067,-0.0658,-0.0639,-0.0618,-0.0591,-0.056,-0.0533,-0.0505,-0.0455,-0.0425,-0.0437,-0.0349,-0.0326,-0.0258,-0.0255,-0.0245,-0.0216,-0.0259,-0.0162,-0.0152,-0.0141,-0.0103,-0.0088,-0.0262,-0.0263,-0.0263,-0.0263,0,-0.0659,-0.0653,-0.0643,-0.0611,-0.0586,-0.0558,-0.0507,-0.048,-0.0456,-0.042,-0.0352,-0.0311,-0.0261,-0.0251,-0.0242,-0.0163,-0.0172,-0.0167,-0.017,-0.0128,-0.0091,-0.0076,-0.0261,-0.0262,-0.0262,-0.0262,0,0,-0.0688,-0.0644,-0.0645,-0.0629,-0.0577,-0.0557,-0.0507,-0.0446,-0.0414,-0.0362,-0.0309,-0.0242,-0.0223,-0.0197,-0.0175,-0.0112,-0.0025,-0.0116,-0.0113,-0.0077,0.0118,0.0071,0.0083,-0.0005,-0.0002,0.0001,0.0109,0,-0.0682,-0.0659,-0.0631,-0.0603,-0.0578,-0.0531,-0.0494,-0.0439,-0.0392,-0.0339,-0.0265,-0.022,-0.0201,-0.0188,-0.0113,-0.0056,0.0019,-0.0056,0.0073,0.0076,0.0031,0.0101,0.0011,0.012,0.0124,0.0126,0.0128,0,-0.0676,-0.0661,-0.0638,-0.0598,-0.0582,-0.0568,-0.0505,-0.0465,-0.0374,-0.0337,-0.0259,-0.0214,-0.0117,-0.0115,0.0046,-0.0009,0.0063,0.0116,0.0122,0.0089,0.0059,0.0075,0.0156,0.0154,0.0152,0.015,0.0148,0,-0.0708,-0.0668,-0.066,-0.064,-0.0588,-0.0572,-0.0547,-0.0471,-0.0437,-0.0342,-0.0315,-0.0187,-0.0145,-0.0017,0.0084,0.007,0.0252,0.0248,0.0286,0.0282,0.0284,0.0273,0.0395,0.0395,0.0394,0.0394,0.0394,0,-0.0706,-0.0701,-0.0683,-0.0672,-0.0668,-0.0617,-0.0599,-0.0547,-0.0478,-0.0437,-0.0332,-0.0276,-0.0117,-0.0003,0.0102,0.0231,0.0276,0.0311,0.0323,0.0281,0.0269,0.0294,0.0281,0.0398,0.0397,0.0396,0.0396,0,-0.0735,-0.072,-0.0716,-0.0686,-0.0687,-0.069,-0.0661,-0.064,-0.0569,-0.0513,-0.0487,-0.0338,-0.0189,-0.0033,0.0164,0.0232,0.037,0.0412,0.034,0.0341,0.0344,0.0331,0.0473,0.0472,0.0472,0.0472,0.0472,0,-0.0742,-0.0745,-0.0755,-0.0775,-0.0769,-0.077,-0.0771,-0.0703,-0.0674,-0.0548,-0.0523,-0.0369,-0.0258,-0.001,0.0146,0.0358,0.0383,0.0444,0.0424,0.0364,0.0361,0.0348,0.0335,0.0471,0.0471,0.0471,0.0471,0,-0.0754,-0.0777,-0.0779,-0.0831,-0.0852,-0.0858,-0.0847,-0.0833,-0.0738,-0.0679,-0.0531,-0.0379,-0.0213,-0.0018,0.0142,0.0294,0.0397,0.0441,0.0443,0.0425,0.0364,0.0358,0.0345,0.047,0.047,0.047,0.047,0,-0.078,-0.0802,-0.0834,-0.087,-0.0912,-0.0925,-0.0911,-0.085,-0.0802,-0.0648,-0.0603,-0.0394,-0.0263,-0.005,0.01,0.0238,0.0272,0.0305,0.0315,0.0318,0.0231,0.0128,0.0194,0,0,0,0,0,-0.079,-0.0819,-0.0866,-0.0905,-0.0953,-0.097,-0.0949,-0.0917,-0.0831,-0.0733,-0.0657,-0.0489,-0.0235,-0.0119,0.0015,0.0066,0.0268,0.0222,0.0303,0.0463,0.0464,0.0385,0,0,0,0,0,0,-0.0799,-0.0846,-0.0866,-0.0929,-0.0968,-0.1003,-0.0992,-0.0933,-0.0858,-0.0753,-0.0613,-0.0492,-0.0248,-0.0319,0.0004,0.0049,0.0111,0.0356,0.0358,0.0462,0.0464,0.0465,0.0383,0,0,0,0,0]}]]